Track STARLINK-3535 now! 10-day predictions STARLINK-3535 is classified as:
1 51722U 22016J 22221.25001157 -.00074192 00000-0 -46876-2 0 9996 2 51722 53.2160 82.9268 0001727 63.2174 168.6515 15.08873559 26956